Flag for India Weather past 2 weeks in Bhilwara, Rajasthan, India

Now
84 °F

Haze.


Feels Like: 91 °F
Forecast: 73 / 90 °F
Wind: 9 mph from Northwest

Location: Jaipur / Sanganer

Current Time: Sep 16, 2014 at 11:41:16 PM

Latest Report: Sep 16, 2014 at 11:00 PM


Visibility: 2 mi

Pressure: 29.71 "Hg

Humidity: 70%

Dew point: 73 °F

Location of BhilwaraLocation

Historic Weather in Bhilwara — Graph

°F

Bhilwara temperature yesterday

Maximum temperature yesterday: 90 °F (at 12:00 PM)
Minimum temperature yesterday: 79 °F (at 12:00 AM)
Average temperature yesterday: 84 °F

Past Weeks' High & Low Weather Summary

 TemperatureHumidityPressure
High93 °F (Sep 10, 1:00 PM)100% (Sep 3, 8:00 AM)29.83 "Hg (Sep 3, 8:00 AM)
Low73 °F (Sep 12, 4:00 AM)49% (Sep 16, 3:00 PM)29.53 "Hg (Sep 2, 5:00 PM)
Average82 °F81%29.69 "Hg
* Reported Sep 1 9:00 PM — Sep 16 9:00 PM, Bhilwara, Weather by CustomWeather, © 2014

Note: Actual official high and low records may vary slightly from our data, if they occured in-between our weather recording intervals... More about our weather records

Advertising

Bhilwara weather history for previous 24 hours

 ConditionsComfort  
Time TempWeatherWind HumidityBarometerVisibility
9:00 PM
Sep 16
86 °FHaze.6 mph62%29.71 "Hg2 mi
8:00 PM86 °FHaze.6 mph62%29.71 "Hg2 mi
7:00 PM88 °FHaze.7 mph59%29.68 "Hg2 mi
5:00 PM91 °FScattered clouds.7 mph52%29.65 "Hg2 mi
4:00 PM93 °FScattered clouds.7 mph49%29.65 "Hg2 mi
3:00 PM93 °FScattered clouds.8 mph49%29.68 "Hg2 mi
2:00 PM91 °FScattered clouds.7 mph52%29.71 "Hg2 mi
12:00 PM90 °FHaze.9 mph100%29.77 "Hg2 mi
11:00 AM88 °FHaze.9 mph62%29.77 "Hg2 mi
10:00 AM86 °FHaze.8 mph66%29.80 "Hg2 mi
9:00 AM84 °FHaze.8 mph70%29.77 "Hg2 mi
8:00 AM82 °FHaze.8 mph74%29.77 "Hg2 mi
7:00 AM81 °FHaze.5 mph79%29.74 "Hg2 mi
6:00 AM79 °FHaze.6 mph84%29.74 "Hg2 mi
5:00 AM81 °FHaze.7 mph79%29.74 "Hg2 mi
4:00 AM81 °FHaze.5 mph79%29.71 "Hg2 mi
3:00 AM81 °FHaze.6 mph79%29.71 "Hg2 mi
2:00 AM81 °FHaze.6 mph79%29.74 "Hg2 mi
1:00 AM81 °FHaze.5 mph74%29.74 "Hg2 mi
12:00 AM81 °FHaze.6 mph79%29.74 "Hg2 mi
11:00 PM
Sep 15
81 °FHaze.6 mph79%29.74 "Hg2 mi
Weather by CustomWeather, © 2014

See weather overviewHow to use our weather pages